Location: Casa Mangolini
(44.8586°N, 12.2411°E)
Time: 23:30:59
(UTC+00:00)

Daily predictions for brighter satellites

Satellite Brightness Start Highest point End
(mag) Time Altitude Azimuth Time Altitude Azimuth Time Altitude Azimuth
Feng Yun 1-1 Rocket 4.3 16:05:00 10° SSE 16:10:29 57° ENE 16:15:50 10° N
Helios 1A Rocket 4.2 16:09:23 10° S 16:13:24 48° W 16:17:26 10° NNW
ERBS 3.4 16:12:14 10° S 16:15:08 28° SE 16:18:02 10° ENE
Okean O Rocket 3.1 16:18:41 10° S 16:22:52 42° W 16:27:02 10° NNW
YAOGAN 6 4.0 16:24:18 10° ESE 16:26:37 17° ENE 16:28:57 10° NNE
Cosmos 2084 3.8 16:22:44 10° NW 16:27:02 70° SW 16:31:13 10° SSE
AQUARIUS 4.2 16:22:47 10° SSE 16:27:13 64° ENE 16:31:42 10° N
Cosmos 1500 Rocket 3.9 16:23:35 10° NNW 16:27:57 72° W 16:32:15 10° S
IRS-1C Rocket 4.1 16:24:29 10° SSE 16:29:46 90° ENE 16:35:06 10° NNW
Cosmos 2219 3.3 16:24:09 10° NNW 16:29:47 86° WSW 16:35:24 10° SSE
Cosmos 1464 Rocket 4.4 16:24:06 10° N 16:29:51 39° ENE 16:35:30 10° SE
Cosmos 1633 Rocket 4.0 16:28:32 10° NNE 16:32:14 25° ENE 16:35:54 10° SE
PSLV R/B 4.4 16:30:41 10° N 16:34:53 65° WNW 16:39:03 10° SSW
Cosmos 1607 4.0 16:33:07 10° NW 16:39:21 87° NE 16:45:39 10° SE
Cosmos 1356 Rocket 3.5 16:36:38 10° S 16:40:41 55° E 16:44:51 10° NNE
CORIOLIS 4.1 16:35:47 10° SSE 16:41:11 80° ENE 16:46:39 10° NNW
Cosmos 1869 3.2 16:38:49 10° S 16:42:45 72° E 16:46:41 10° NNE
Sich 1 3.1 16:39:06 10° N 16:43:21 52° ENE 16:47:38 10° SSE
Cosmos 1980 Rocket 3.4 16:39:22 10° SE 16:43:24 20° E 16:46:08 15° ENE
PSLV R/B 3.9 16:41:49 10° WSW 16:44:08 32° S 16:46:01 13° ESE
COSMO-SKYMED 1 3.3 16:40:31 10° NNE 16:44:24 31° E 16:48:15 10° SSE
Cosmos 1666 Rocket 3.9 16:40:36 10° N 16:44:44 39° ENE 16:48:49 10° SE
Cosmos 773 Rocket 4.3 16:40:00 10° SSW 16:45:08 71° WNW 16:50:22 10° NNE
COBE Rocket 3.8 16:42:35 10° NNE 16:47:22 66° E 16:52:00 10° S
Cosmos 1151 Rocket 4.2 16:44:00 10° SE 16:47:24 23° E 16:50:18 12° NE
Cosmos 2297 Rocket 2.2 16:42:11 10° NNW 16:47:52 89° ENE 16:53:32 10° SSE
Cosmos 2227 Rocket 2.2 16:42:14 10° NNW 16:47:57 83° ENE 16:53:37 10° SSE
BREEZE-M DEB (TANK) 4.3 16:48:09 10° WSW 16:52:13 87° SSE 17:03:44 16° ENE
Lacrosse 4 Rocket 1.6 16:48:24 10° S 16:52:18 46° ESE 16:55:09 17° NE
Cosmos 923 Rocket 4.2 16:51:29 10° S 16:56:30 50° ESE 17:01:31 10° NNE
Cosmos 2344 4.5 16:51:25 10° WSW 16:58:32 44° NW 17:06:39 10° NE
CZ-4 R/B 1.8 16:56:24 10° SE 17:00:18 41° ENE 17:04:10 10° N
Cosmos 2056 Rocket 4.3 16:58:03 10° N 17:02:26 27° ENE 17:04:32 21° E
FengYun 1-2 T 4.2 16:57:31 10° SSE 17:02:55 58° ENE 17:08:19 10° N
Cosmos 2221 4.3 16:59:36 10° SW 17:03:29 32° WNW 17:07:26 10° N
H-2A R/B 3.7 17:00:02 10° S 17:03:47 51° W 17:07:32 10° NNW
Cosmos 2369 3.7 17:01:03 10° S 17:06:36 61° ESE 17:11:46 12° NNE
Cosmos 2263 Rocket 3.5 17:05:01 10° N 17:08:58 19° NE 17:09:13 19° NE
YAOGAN 1 2.9 17:06:50 10° SE 17:10:54 42° ENE 17:15:00 10° N
Cosmos 1939 Rocket 4.4 17:13:34 20° NE 17:13:34 20° NE 17:15:28 10° NNE
USA 215 3.9 17:11:47 22° ENE 17:15:19 39° NNE 17:21:15 10° NW
Cosmos 1470 Rocket 4.0 17:11:32 10° N 17:15:46 39° ENE 17:19:58 10° SE
Cosmos 2082 3.6 17:10:57 10° NNW 17:16:36 87° ENE 17:22:14 10° SSE
Meteor 2-11 Rocket 4.4 17:11:03 10° N 17:17:08 62° ENE 17:23:11 10° SSE
Cosmos 2360 4.4 17:14:51 10° S 17:20:17 48° ESE 17:23:25 24° NE
Cosmos 1697 Rocket 2.6 17:16:36 10° SSW 17:22:14 75° ESE 17:26:50 16° NNE
ATLAS 5 CENTAUR R/B 3.2 17:16:35 10° NW 17:22:19 54° WSW 17:28:48 10° SSE
APEX 4.2 17:19:48 10° S 17:22:07 26° SE 17:22:07 26° SE
NOSS 2-3 (E) 3.6 17:19:27 10° SSW 17:23:43 66° ESE 17:25:54 31° NE
GEOS 3 Rocket 4.1 17:21:14 14° NNE 17:25:38 59° NW 17:30:48 10° SW
Cosmos 2278 3.7 17:20:19 10° S 17:25:54 64° ESE 17:29:44 21° NE
USA 229 DEB 4.1 17:19:58 10° SW 17:26:27 58° NW 17:32:27 14° NNE
USA 229 4.1 17:20:05 10° SW 17:26:34 58° NW 17:32:31 14° NNE
BREEZE-M DEB (TANK) 2.9 17:20:04 10° W 17:27:11 47° N 17:28:08 36° NE
Cosmos 2034 Rocket 3.9 17:21:08 10° N 17:27:30 76° E 17:33:53 10° SSE
NOSS 3-1 (C) 3.9 17:25:58 10° WSW 17:31:28 55° NW 17:36:36 16° NNE
NOSS 3-1 (A) 3.4 17:25:59 10° SW 17:31:32 79° NW 17:36:01 20° NE
SKYMED 2 3.6 17:28:18 10° N 17:32:39 82° WNW 17:37:00 10° SSW
Okean-O 4.0 17:28:48 10° S 17:32:58 40° W 17:37:10 10° NNW
NOSS 2-3 (D) 3.6 17:28:55 10° SSW 17:33:13 74° SE 17:34:59 38° NE
Envisat 3.6 17:28:33 10° S 17:33:33 59° W 17:38:34 10° NNW
Cosmos 1633 3.6 17:30:40 10° NNW 17:34:10 47° W 17:37:40 10° SSW
SeaSat 1 3.1 17:31:20 10° SSE 17:36:09 55° WSW 17:41:01 10° NW
Cosmos 1862 3.8 17:33:33 10° NNW 17:37:29 59° W 17:41:24 10° S
Cosmos 1634 Rocket 4.1 17:41:48 10° N 17:47:48 48° ENE 17:49:20 40° ESE
Tsikada Rocket 3.9 17:44:25 10° S 17:50:46 77° E 17:57:12 10° N
ERBS 3.6 17:48:21 10° W 17:51:17 34° NW 17:51:17 34° NW
Cosmos 1371 Rocket 3.8 17:47:44 10° NNW 17:52:58 83° ENE 17:55:24 32° SSE
Cosmos 1816 Rocket 4.4 17:47:00 10° S 17:53:20 85° E 17:59:46 10° N
BREEZE-M DEB (TANK) 2.5 17:50:11 10° WSW 17:54:37 60° SSW 17:54:37 60° SSW
Meteor 1-25 Rocket 4.4 17:49:53 10° N 17:54:48 49° NE 17:54:48 49° NE
IRS-1A Rocket 4.3 17:56:07 53° ENE 17:56:07 53° ENE 18:01:39 10° N
NOAA 11 4.0 17:50:47 10° SSE 17:56:12 80° ENE 18:01:39 10° NNW
CSL-04 Debris 4.5 17:53:54 10° S 17:59:21 68° WSW 18:04:51 10° NNW
YAOGAN 6 4.3 17:56:45 10° SSW 17:59:54 31° W 18:03:04 10° NNW
Meteor 1-20 Rocket 4.3 17:56:59 10° N 18:02:25 58° ENE 18:02:25 58° ENE
Cosmos 2112 Rocket 4.3 18:01:20 10° SSW 18:06:28 63° WNW 18:08:59 30° N
CENTAUR R/B 4.2 18:03:17 10° NNW 18:09:17 24° NNE 18:09:54 24° NNE
NOSS 2-3 (C) 4.3 18:06:56 10° SW 18:11:15 54° NW 18:12:02 48° N
Cosmos 158 Rocket 3.9 18:07:29 10° SSW 18:12:48 85° WNW 18:13:15 75° N
Cosmos 1680 Rocket 4.4 18:08:24 10° SW 18:13:26 48° WNW 18:16:26 23° N
CSL-04 Rocket 4.5 18:10:35 10° S 18:15:45 49° W 18:20:55 10° NNW
Ariane Rocket 3.4 18:17:35 54° N 18:17:35 54° N 18:21:30 10° NNW
Cosmos 1980 Rocket 2.5 18:21:15 10° SW 18:26:51 64° WNW 18:27:57 53° NNW
ATLAS 3B R/B 4.2 18:23:14 10° NNW 18:27:04 20° NNE 18:27:04 20° NNE
Lacrosse 4 Rocket 3.6 18:28:09 10° W 18:31:13 20° NW 18:31:30 20° NW
CZ-4 R/B 4.2 18:32:35 10° SW 18:35:28 18° W 18:38:22 10° NW
Cosmos 2263 Rocket 3.5 18:48:00 10° NNW 18:50:56 32° NNW 18:50:56 32° NNW
USA 215 3.5 18:59:08 61° NW 18:59:08 61° NW 19:04:26 10° NW
